Location: Unspecified
(0.0000°N, 0.0000°E)
Time: 11:07:48
(UTC+00:00)

Diademe D-1C - Visible Passes

Search period start: 05 June 2023 00:00
Search period end: 15 June 2023 00:00
Orbit: 518 x 878 km, 39.9° (Epoch: 05 June)

Date Brightness Start Highest point End Pass type
(mag) Time Alt. Az. Time Alt. Az. Time Alt. Az.
05 Jun 7.7 05:15:48 10° NNW 05:20:36 40° NE 05:24:57 10° ESE visible
05 Jun 9.4 19:21:43 10° WNW 19:24:38 15° NW 19:27:42 10° N visible
06 Jun 8.8 04:15:04 10° N 04:19:00 21° NE 04:22:39 10° E visible
06 Jun 8.7 18:18:39 10° W 18:22:54 27° NW 18:27:31 10° NNE visible
07 Jun 9.5 03:15:51 10° NNE 03:17:14 11° NE 03:18:35 10° NE visible
07 Jun 6.4 04:56:21 10° NW 05:01:41 78° NE 05:06:25 10° SE visible
08 Jun 7.7 03:55:01 10° NNW 04:00:07 38° NE 04:04:44 10° ESE visible
09 Jun 8.9 02:59:52 18° ENE 02:59:52 18° ENE 03:02:16 10° E visible
09 Jun 6.4 04:38:48 18° WNW 04:42:38 56° SW 04:47:26 10° SE visible
10 Jun 7.6 03:43:13 36° ESE 03:43:13 36° ESE 03:46:13 10° SE visible
10 Jun 7.9 05:22:07 10° WSW 05:25:02 15° SW 05:27:48 10° S visible
11 Jun 7.8 04:25:49 22° S 04:25:49 22° S 04:28:00 10° SSE visible
